| time (UTC) | temp C | wind direction | speed KPH | gust KPH | rain 1hr cm | rain 24hr cm | rain mn cm | humidity % | barometer mb |
| 20260505041501 | 16 | 172 | 1.6 | 8.0 | 0.00 | 0.00 | 0.00 | 50 | 1003.3 |
| 20260505041005 | 16 | 162 | 0.0 | 4.8 | 0.00 | 0.00 | 0.00 | 50 | 1003.3 |
| 20260505040504 | 16 | 170 | 1.6 | 4.8 | 0.00 | 0.00 | 0.00 | 50 | 1003.3 |
| 20260505035504 | 16 | 172 | 1.6 | 3.2 | 0.00 | 0.00 | 0.00 | 51 | 1003.3 |
| 20260505035005 | 15 | 217 | 0.0 | 4.8 | 0.00 | 0.00 | 0.00 | 51 | 1003.3 |
| 20260505034500 | 15 | 218 | 0.0 | 4.8 | 0.00 | 0.00 | 0.00 | 52 | 1003.3 |
| 20260505033505 | 15 | 200 | 0.0 | 1.6 | 0.00 | 0.00 | 0.00 | 52 | 1003.2 |
| 20260505033003 | 16 | 198 | 0.0 | 1.6 | 0.00 | 0.00 | 0.00 | 50 | 1003.3 |
| 20260505032502 | 16 | 198 | 0.0 | 1.6 | 0.00 | 0.00 | 0.00 | 51 | 1003.3 |
| 20260505032004 | 16 | 198 | 0.0 | 1.6 | 0.00 | 0.00 | 0.00 | 50 | 1003.3 |
| 20260505031505 | 16 | 188 | 0.0 | 3.2 | 0.00 | 0.00 | 0.00 | 51 | 1003.3 |
| 20260505031001 | 16 | 194 | 0.0 | 4.8 | 0.00 | 0.00 | 0.00 | 50 | 1003.3 |
| 20260505030503 | 16 | 172 | 0.0 | 4.8 | 0.00 | 0.00 | 0.00 | 50 | 1003.3 |
| 20260505025500 | 16 | 193 | 0.0 | 3.2 | 0.00 | 0.00 | 0.00 | 50 | 1003.3 |
| 20260505025004 | 16 | 180 | 0.0 | 3.2 | 0.00 | 0.00 | 0.00 | 50 | 1003.3 |
| 20260505024504 | 16 | 219 | 0.0 | 1.6 | 0.00 | 0.00 | 0.00 | 51 | 1003.4 |
| 20260505024002 | 16 | 211 | 0.0 | 1.6 | 0.00 | 0.00 | 0.00 | 51 | 1003.3 |
| 20260505023502 | 16 | 196 | 0.0 | 3.2 | 0.00 | 0.00 | 0.00 | 51 | 1003.4 |
| 20260505023007 | 15 | 196 | 0.0 | 3.2 | 0.00 | 0.00 | 0.00 | 51 | 1003.5 |
| 20260505022502 | 15 | 189 | 0.0 | 3.2 | 0.00 | 0.00 | 0.00 | 53 | 1003.4 |
| 20260505022004 | 15 | 188 | 0.0 | 3.2 | 0.00 | 0.00 | 0.00 | 54 | 1003.5 |
| 20260505021504 | 15 | 186 | 0.0 | 4.8 | 0.00 | 0.00 | 0.00 | 54 | 1003.5 |
| 20260505021001 | 15 | 182 | 0.0 | 4.8 | 0.00 | 0.00 | 0.00 | 55 | 1003.4 |
| 20260505020504 | 15 | 191 | 0.0 | 0.0 | 0.00 | 0.00 | 0.00 | 58 | 1003.4 |
| 20260505020004 | 15 | 191 | 0.0 | 0.0 | 0.00 | 0.03 | 0.00 | 57 | 1003.4 |
| 20260505015503 | 15 | 191 | 0.0 | 0.0 | 0.00 | 0.03 | 0.00 | 58 | 1003.4 |
| 20260505015000 | 15 | 191 | 0.0 | 0.0 | 0.00 | 0.03 | 0.00 | 58 | 1003.4 |
| 20260505014502 | 15 | 191 | 0.0 | 0.0 | 0.00 | 0.03 | 0.00 | 56 | 1003.4 |
| 20260505014000 | 15 | 191 | 0.0 | 0.0 | 0.00 | 0.03 | 0.00 | 56 | 1003.3 |
| 20260505013504 | 15 | 191 | 0.0 | 0.0 | 0.00 | 0.03 | 0.00 | 56 | 1003.3 |
| 20260505012506 | 15 | 191 | 0.0 | 0.0 | 0.00 | 0.03 | 0.00 | 55 | 1003.4 |
| 20260505012003 | 16 | 191 | 0.0 | 0.0 | 0.00 | 0.03 | 0.00 | 53 | 1003.5 |
| 20260505011506 | 16 | 191 | 0.0 | 0.0 | 0.00 | 0.03 | 0.00 | 53 | 1003.5 |
| 20260505011006 | 16 | 191 | 0.0 | 0.0 | 0.00 | 0.03 | 0.00 | 51 | 1003.4 |
| 20260505010504 | 16 | 191 | 0.0 | 0.0 | 0.00 | 0.03 | 0.00 | 49 | 1003.4 |
| 20260505010005 | 16 | 191 | 0.0 | 0.0 | 0.00 | 0.03 | 0.00 | 48 | 1003.4 |
| 20260505005004 | 17 | 191 | 0.0 | 0.0 | 0.00 | 0.03 | 0.00 | 48 | 1003.4 |
| 20260505004501 | 17 | 191 | 0.0 | 0.0 | 0.00 | 0.03 | 0.00 | 45 | 1003.3 |
| 20260505004000 | 17 | 191 | 0.0 | 0.0 | 0.00 | 0.03 | 0.00 | 45 | 1003.3 |
| 20260505003505 | 17 | 191 | 0.0 | 0.0 | 0.00 | 0.03 | 0.00 | 45 | 1003.3 |
| 20260505003000 | 18 | 191 | 0.0 | 0.0 | 0.00 | 0.03 | 0.00 | 44 | 1003.3 |
| 20260505002500 | 18 | 191 | 0.0 | 0.0 | 0.00 | 0.03 | 0.00 | 43 | 1003.4 |
| 20260505002000 | 18 | 191 | 0.0 | 0.0 | 0.00 | 0.03 | 0.00 | 43 | 1003.3 |
| 20260505001004 | 19 | 191 | 0.0 | 0.0 | 0.00 | 0.03 | 0.00 | 41 | 1003.4 |
| 20260505000503 | 20 | 191 | 0.0 | 0.0 | 0.00 | 0.03 | 0.00 | 40 | 1003.4 |
| 20260505000005 | 20 | 191 | 0.0 | 0.0 | 0.00 | 0.03 | 0.00 | 42 | 1003.4 |
| 20260504235500 | 20 | 191 | 0.0 | 0.0 | 0.00 | 0.03 | 0.00 | 42 | 1003.3 |
| 20260504235004 | 21 | 191 | 0.0 | 0.0 | 0.00 | 0.03 | 0.00 | 42 | 1003.3 |
| 20260504234504 | 21 | 191 | 0.0 | 0.0 | 0.00 | 0.03 | 0.00 | 39 | 1003.3 |
| 20260504234003 | 21 | 191 | 0.0 | 0.0 | 0.00 | 0.03 | 0.00 | 36 | 1003.2 |
| 20260504233000 | 21 | 191 | 0.0 | 1.6 | 0.00 | 0.03 | 0.00 | 33 | 1003.2 |
| 20260504232504 | 21 | 191 | 0.0 | 3.2 | 0.00 | 0.03 | 0.00 | 35 | 1003.2 |
| 20260504232005 | 22 | 183 | 0.0 | 6.4 | 0.00 | 0.03 | 0.00 | 33 | 1003.2 |
| 20260504231500 | 22 | 205 | 0.0 | 6.4 | 0.00 | 0.03 | 0.00 | 33 | 1003.2 |
| 20260504231002 | 22 | 205 | 1.6 | 4.8 | 0.00 | 0.03 | 0.00 | 34 | 1003.1 |
| 20260504230504 | 22 | 202 | 1.6 | 4.8 | 0.00 | 0.03 | 0.00 | 34 | 1003.2 |
| 20260504230006 | 22 | 165 | 0.0 | 3.2 | 0.00 | 0.03 | 0.00 | 33 | 1003.2 |
| 20260504225500 | 22 | 210 | 1.6 | 3.2 | 0.00 | 0.03 | 0.00 | 33 | 1003.2 |
| 20260504224002 | 23 | 222 | 1.6 | 4.8 | 0.00 | 0.03 | 0.00 | 33 | 1003.4 |
| 20260504223500 | 23 | 266 | 0.0 | 4.8 | 0.00 | 0.03 | 0.00 | 34 | 1003.3 |
| 20260504223004 | 23 | 165 | 1.6 | 11.3 | 0.00 | 0.03 | 0.00 | 33 | 1003.4 |
| 20260504222500 | 23 | 223 | 3.2 | 11.3 | 0.00 | 0.03 | 0.00 | 32 | 1003.4 |
| 20260504222000 | 23 | 210 | 4.8 | 8.0 | 0.00 | 0.03 | 0.00 | 34 | 1003.4 |
| 20260504221505 | 23 | 155 | 4.8 | 9.7 | 0.00 | 0.03 | 0.00 | 32 | 1003.5 |
| 20260504221000 | 23 | 157 | 4.8 | 9.7 | 0.00 | 0.03 | 0.00 | 34 | 1003.5 |
| 20260504220504 | 23 | 170 | 3.2 | 8.0 | 0.00 | 0.03 | 0.00 | 34 | 1003.5 |
| 20260504220007 | 23 | 174 | 3.2 | 8.0 | 0.00 | 0.03 | 0.00 | 37 | 1003.6 |
| 20260504215000 | 23 | 181 | 1.6 | 6.4 | 0.00 | 0.03 | 0.00 | 34 | 1003.6 |
| 20260504214500 | 23 | 279 | 1.6 | 4.8 | 0.00 | 0.03 | 0.00 | 36 | 1003.5 |
| 20260504214006 | 22 | 212 | 1.6 | 4.8 | 0.00 | 0.03 | 0.00 | 37 | 1003.6 |
| 20260504213504 | 22 | 151 | 1.6 | 8.0 | 0.00 | 0.03 | 0.00 | 36 | 1003.6 |
| 20260504213003 | 22 | 260 | 3.2 | 9.7 | 0.00 | 0.03 | 0.00 | 36 | 1003.6 |
| 20260504212500 | 22 | 201 | 3.2 | 9.7 | 0.00 | 0.03 | 0.00 | 38 | 1003.7 |
| 20260504212000 | 23 | 147 | 3.2 | 8.0 | 0.00 | 0.03 | 0.00 | 35 | 1003.7 |
| 20260504211504 | 23 | 152 | 3.2 | 11.3 | 0.00 | 0.03 | 0.00 | 35 | 1003.6 |
| 20260504211004 | 23 | 344 | 4.8 | 14.5 | 0.00 | 0.03 | 0.00 | 33 | 1003.7 |
| 20260504210502 | 23 | 153 | 3.2 | 11.3 | 0.00 | 0.03 | 0.00 | 35 | 1003.7 |
| 20260504210004 | 23 | 192 | 3.2 | 11.3 | 0.00 | 0.03 | 0.00 | 36 | 1003.6 |
| 20260504204500 | 22 | 149 | 3.2 | 9.7 | 0.00 | 0.03 | 0.00 | 39 | 1003.8 |
| 20260504204004 | 22 | 174 | 3.2 | 11.3 | 0.00 | 0.03 | 0.00 | 38 | 1003.9 |
| 20260504203502 | 22 | 178 | 4.8 | 12.9 | 0.00 | 0.03 | 0.00 | 36 | 1003.9 |
| 20260504203002 | 22 | 225 | 3.2 | 12.9 | 0.00 | 0.03 | 0.00 | 38 | 1003.9 |
| 20260504202500 | 22 | 190 | 3.2 | 8.0 | 0.00 | 0.03 | 0.00 | 41 | 1004.0 |
| 20260504202005 | 22 | 232 | 3.2 | 8.0 | 0.00 | 0.03 | 0.00 | 40 | 1004.1 |
| 20260504201500 | 22 | 180 | 3.2 | 8.0 | 0.00 | 0.03 | 0.00 | 40 | 1004.1 |
| 20260504201005 | 22 | 191 | 4.8 | 9.7 | 0.00 | 0.03 | 0.00 | 38 | 1004.1 |
| 20260504200500 | 22 | 161 | 4.8 | 17.7 | 0.00 | 0.03 | 0.00 | 37 | 1004.2 |
| 20260504200006 | 22 | 209 | 3.2 | 19.3 | 0.00 | 0.03 | 0.00 | 36 | 1004.3 |
| 20260504195459 | 22 | 184 | 3.2 | 12.9 | 0.00 | 0.03 | 0.00 | 43 | 1004.3 |
| 20260504194500 | 22 | 254 | 6.4 | 20.9 | 0.00 | 0.03 | 0.00 | 40 | 1004.6 |
| 20260504193500 | 22 | 138 | 3.2 | 9.7 | 0.00 | 0.03 | 0.00 | 41 | 1004.6 |
| 20260504193005 | 21 | 146 | 3.2 | 8.0 | 0.00 | 0.03 | 0.00 | 40 | 1004.6 |
| 20260504192459 | 21 | 161 | 4.8 | 12.9 | 0.00 | 0.03 | 0.00 | 41 | 1004.8 |
| 20260504191501 | 22 | 145 | 4.8 | 12.9 | 0.00 | 0.03 | 0.00 | 40 | 1004.9 |
| 20260504190459 | 22 | 236 | 4.8 | 12.9 | 0.00 | 0.03 | 0.00 | 42 | 1005.0 |
| 20260504190003 | 22 | 163 | 3.2 | 12.9 | 0.00 | 0.03 | 0.00 | 43 | 1005.1 |
| 20260504185500 | 21 | 283 | 3.2 | 8.0 | 0.00 | 0.03 | 0.00 | 42 | 1005.1 |
| 20260504185000 | 22 | 173 | 6.4 | 12.9 | 0.00 | 0.03 | 0.00 | 42 | 1005.0 |
| 20260504184501 | 21 | 139 | 8.0 | 16.1 | 0.00 | 0.03 | 0.00 | 43 | 1005.1 |
| 20260504184000 | 22 | 148 | 4.8 | 16.1 | 0.00 | 0.03 | 0.00 | 40 | 1005.2 |
| 20260504183500 | 22 | 148 | 3.2 | 16.1 | 0.00 | 0.03 | 0.00 | 43 | 1005.2 |
| 20260504183000 | 21 | 152 | 4.8 | 16.1 | 0.00 | 0.03 | 0.00 | 43 | 1005.3 |
| 20260504182502 | 21 | 179 | 4.8 | 12.9 | 0.00 | 0.03 | 0.00 | 45 | 1005.3 |
| 20260504182001 | 21 | 281 | 3.2 | 12.9 | 0.00 | 0.03 | 0.00 | 44 | 1005.3 |
| 20260504181500 | 21 | 144 | 4.8 | 12.9 | 0.00 | 0.03 | 0.00 | 44 | 1005.5 |
| 20260504181005 | 21 | 259 | 4.8 | 14.5 | 0.00 | 0.03 | 0.00 | 44 | 1005.5 |
| 20260504180501 | 21 | 283 | 4.8 | 12.9 | 0.00 | 0.03 | 0.00 | 43 | 1005.7 |
| 20260504180005 | 21 | 140 | 4.8 | 14.5 | 0.00 | 0.03 | 0.00 | 45 | 1005.7 |
| 20260504175500 | 21 | 279 | 3.2 | 14.5 | 0.00 | 0.03 | 0.00 | 45 | 1005.7 |
| 20260504174502 | 20 | 244 | 4.8 | 17.7 | 0.00 | 0.03 | 0.00 | 46 | 1005.8 |
| 20260504174003 | 20 | 268 | 3.2 | 14.5 | 0.00 | 0.03 | 0.00 | 45 | 1005.7 |
| 20260504173504 | 20 | 215 | 3.2 | 14.5 | 0.00 | 0.03 | 0.00 | 45 | 1005.8 |
| 20260504173000 | 20 | 142 | 4.8 | 12.9 | 0.00 | 0.03 | 0.00 | 46 | 1005.8 |
| 20260504172504 | 20 | 227 | 4.8 | 12.9 | 0.00 | 0.03 | 0.00 | 46 | 1005.9 |
| 20260504172004 | 20 | 254 | 6.4 | 19.3 | 0.00 | 0.03 | 0.00 | 46 | 1006.0 |
| 20260504171500 | 20 | 188 | 6.4 | 19.3 | 0.00 | 0.03 | 0.00 | 45 | 1005.9 |
| 20260504171000 | 19 | 163 | 4.8 | 19.3 | 0.00 | 0.03 | 0.00 | 47 | 1005.9 |
| 20260504170500 | 19 | 143 | 6.4 | 19.3 | 0.00 | 0.03 | 0.00 | 47 | 1005.9 |
| 20260504151002 | 16 | 171 | 6.4 | 16.1 | 0.00 | 0.03 | 0.00 | 47 | 1006.6 |
| 20260504150500 | 16 | 229 | 6.4 | 16.1 | 0.00 | 0.03 | 0.00 | 47 | 1006.7 |
| 20260504140959 | 15 | 141 | 4.8 | 17.7 | 0.00 | 0.03 | 0.00 | 52 | 1007.0 |
| 20260504140459 | 15 | 176 | 4.8 | 16.1 | 0.00 | 0.03 | 0.00 | 51 | 1007.0 |
| 20260504110500 | 11 | 148 | 4.8 | 11.3 | 0.00 | 0.03 | 0.00 | 56 | 1007.4 |
| 20260504100459 | 10 | 161 | 3.2 | 8.0 | 0.00 | 0.03 | 0.00 | 60 | 1007.5 |
| 20260504081459 | 10 | 155 | 1.6 | 6.4 | 0.00 | 0.03 | 0.00 | 58 | 1007.6 |
| 20260504080459 | 10 | 193 | 1.6 | 8.0 | 0.00 | 0.03 | 0.00 | 59 | 1007.8 |
| 20260504050459 | 8 | 205 | 0.0 | 0.0 | 0.00 | 0.03 | 0.00 | 87 | 1008.6 |
| 20260504050003 | 8 | 205 | 0.0 | 0.0 | 0.00 | 0.03 | 0.00 | 86 | 1008.7 |
| 20260504045506 | 8 | 205 | 0.0 | 0.0 | 0.00 | 0.03 | 0.00 | 86 | 1008.6 |
| 20260504045004 | 8 | 205 | 0.0 | 0.0 | 0.00 | 0.03 | 0.00 | 86 | 1008.6 |
| 20260504044502 | 8 | 205 | 0.0 | 0.0 | 0.00 | 0.03 | 0.00 | 86 | 1008.8 |
| 20260504043506 | 8 | 205 | 0.0 | 0.0 | 0.00 | 0.03 | 0.00 | 86 | 1008.8 |
| 20260504043006 | 8 | 205 | 0.0 | 0.0 | 0.00 | 0.03 | 0.00 | 85 | 1008.8 |
| 20260504042502 | 8 | 205 | 0.0 | 0.0 | 0.00 | 0.03 | 0.00 | 85 | 1008.8 |
| 20260504042004 | 8 | 205 | 0.0 | 0.0 | 0.00 | 0.03 | 0.00 | 85 | 1008.8 |